Tracking 28790 objects as of 19-Apr-2024
HD Live streaming from Space Station
objects crossing your sky now

SL-16 DEB

Track SL-16 DEB now!
10-day predictions


NORAD ID: 22348
Int'l Code: 1992-093AM
Perigee: 797.8 km
Apogee: 951.5 km
Inclination: 71.3 °
Period: 102.3 minutes
Semi major axis: 7245 km
RCS: 0.0748 m2 (small)
Launch date: December 25, 1992
Source: Commonwealth of Independent States (former USSR) (CIS)
Launch site: TYURATAM MISSILE AND SPACE COMPLEX (TTMTR)

Note: This is SATELLITE DEBRIS
Your satellite tracking list
Your tracking list is empty




NASA's NSSDC Master Catalog

Two Line Element Set (TLE):
1 22348U 92093AM  24109.84116510  .00001199  00000-0  69888-3 0  9996
2 22348  71.2624  28.2087 0106084 161.1947 258.4921 14.07626824602221
Source of the keplerian elements: AFSPC